Regional Weather Roundup
Issued by NWS

Home | Current Version | Previous Version | Graphics & Text | Print | Product List | Glossary On
Versions: 1 2 3 4 5 6 7 8 9 10 11 12 13 14 15 16 17 18 19 20 21 22 23 24 25 26 27 28
000
ASUS45 KSLC 251310
RWRUT

UTAH REGIONAL WEATHER ROUNDUP
NATIONAL WEATHER SERVICE SALT LAKE CITY UT
700 AM MDT MON JUL 25 2016

UTZ001>011-023>025-251400-

NORTHERN UTAH

CITY           SKY/WX    TMP DP  RH WIND       PRES   REMARKS
BRIGHAM CITY     N/A     58  37  45 CALM      30.09R
HILL AFB       PTCLDY    66  30  25 E18       30.10R
LOGAN          CLEAR     53  43  68 CALM      30.13R
OGDEN          PTCLDY    66  32  28 SE5       30.08R
PROVO AIRPORT  PTCLDY    61  43  51 E7        30.11R
SALT LAKE CITY MOCLDY    75  43  31 SE7       30.05S
VERNAL         CLEAR     62  32  32 W8        30.18R
WENDOVER       PTCLDY    66  34  30 CALM      30.08R
HEBER CITY     PTCLDY    52  41  66 CALM      30.21S

$$

UTZ012>022-026-027-251400-

SOUTHERN/CENTRAL UTAH

CITY           SKY/WX    TMP DP  RH WIND       PRES   REMARKS
BLANDING       PTCLDY    65  45  48 CALM      30.32R
BRYCE CANYON   CLEAR     47  40  76 W3        30.39R
CEDAR CITY     CLEAR     68  46  45 SE6       30.20R
DELTA          CLEAR     73  37  27 S9        30.11R
MILFORD        CLEAR     69  43  38 W10       30.14R
MOAB/CYNLANDS  PTCLDY    75  38  26 E3        30.10R
PRICE          PTCLDY    67  21  17 N3        30.22R
ST GEORGE      MOSUNNY   81  46  30 E9        30.02R
KANAB          CLEAR     63  46  55 CALM      30.22R

$$

REGIONAL REPORTS     COLORADO/ARIZONA

CITY           SKY/WX    TMP DP  RH WIND       PRES   REMARKS
CRAIG, CO      CLOUDY    49  42  77 W7        30.29R
GRAND JUNCTION CLOUDY    69  41  36 E15       30.16R
RIFLE          CLOUDY    59  42  53 CALM      30.25R
MONTROSE       PTCLDY    68  40  35 E7        30.26R
CORTEZ         CLOUDY    62  48  60 MISG      30.27R
PAGE, AZ       CLEAR     74  49  41 W3        30.12R
GRAND CANYON   PTCLDY    52  48  86 CALM      30.32R
KINGMAN        CLEAR     82  53  36 CALM      30.05R
FLAGSTAFF      PTCLDY    55  48  77 CALM      30.34R

$$

REGIONAL REPORTS    NEVADA/IDAHO/WYOMING

CITY           SKY/WX    TMP DP  RH WIND       PRES   REMARKS
LAS VEGAS, NV  PTCLDY    89  33  13 S6        29.87R
ELY            CLEAR     46  22  38 S7        30.24R
ELKO           PTCLDY    54  29  38 E6        30.15R
POCATELLO, ID  CLOUDY    48  34  58 NE3       30.14R
BURLEY         CLEAR     51  42  71 SE3       30.09R
EVANSTON, WY   CLOUDY    58  24  27 SW7       30.32R
ROCK SPRINGS   CLOUDY    62  18  18 CALM      30.30R
KEMMERER         N/A     48  28  46 N13       30.33S

$$




USA.gov is the U.S. government's official web portal to all federal, state and local government web resources and services.